Location: Houhaj�rvi
(61.2833°N, 23.0000°E)
Time: 03:44:12
(UTC+00:00)

SPOT 1/Viking Rocket - Pass Details

Date: 27 February 2020
Orbit: 778 x 793 km, 98.5° (Epoch: 02 April)

Event Time Altitude Azimuth Distance (km) Brightness Sun altitude
Exits shadow 19:55:18 59° 255° (WSW) 905 3.9 -28.9°
Maximum altitude 19:55:20 59° 257° (WSW) 905 3.9 -28.9°
Drops below altitude 10° 20:00:29 10° 337° (NNW) 2,355 6.8 -29.4°
Sets 20:02:51 0° 342° (NNW) 3,289 7.7 -29.6°
